NIMBUS 2 DEB, 28613

Orbit data source: Space-Track

NIMBUS 2 DEB, 28613 is space debris in SSO originally from a launch on Sun, 15 May 1966 UTC launched from the Air Force Western Test Range (AFWTR). Debris objects in space refer to the collection of defunct objects orbiting the Earth. Examples of debris include non-operational satellites, rocket bodies, and fragments generated from explosions, collisions, or faulty payload assembly.

Loading next visibility...
Identifier
28613, 1966-040AC
Orbit
SSO
Country
Flag of USUS
Related business
Manufacturer
Unknown
Mission
Spacecraft
Bus & Motor
Unknown
Mass
Unknown
Launch date (UTC)
1966-05-15 (60 years ago)
Launch vehicle
Unknown
Launch site
Air Force Western Test Range (AFWTR)
Object type
Payload
Rocket body
Debris
Shape & HBR
Unknown shape, 0.1 m
Radar Cross Section
Small (<0.1 m²)

Expand to show TLE details & history
Last TLE update: 22 hours ago

TLE from 22 hours ago
0 NIMBUS 2 DEB
1 28613U 66040AC  26035.39054961  .00003659  00000-0  40374-2 0  9992
2 28613 100.3644 186.5899 0048883 178.8989 209.6398 13.72185239625154
Epoch: 2026-02-04T09:22Z
TLE epoch observation values (Epoch: 2026-02-04T09:22:23.486Z)
Latitude
27.80372°
Longitude
-94.07151°
Altitude
1,026.398 km
Speed
7.325 km/s
True Right ascension
12h 04m 20s
True Declination
27° 40' 02"
Sunlit
Object was in full shadow at epoch
Visualization orbit readout
Latitude
Unknown
Longitude
Unknown
Altitude
Unknown
Speed
Unknown
Apparent Right ascension
Unknown
Apparent Declination
Unknown
Sunlit
N/A
Visualization observer readout
Local Sidereal Time
09:50:12
Azimuth
Unknown
Elevation
Unknown
Doppler factor
Unknown
Orbital elements
Apogee altitude
1,025.056 km
Perigee altitude
953.031 km
Semi-major axis
7,367.18 km
Eccentricity
0.00489
Inclination
100.3644°
RAAN
186.5899°
Arg. of periapsis
178.8989°
True anomaly
209.36424°
Mean anomaly
209.6398°
Eccentric anomaly
209.50187°
Mean motion
3.43235 °/min
Orbital period
104.88 mins
BSTAR
0.0040374
Loading maneuver chart data...
Computing Atmospheric mass density...
Loading historical data...
Loading historical data...
Loading historical data...
Loading historical data...
Loading historical data...
Loading historical data...
Loading historical data...

Documentation

Showing up to 5 results
|